| time (UTC) | temp F | wind direction | speed MPH | gust MPH | rain 1hr in | rain 24hr in | rain mn in | humidity % | barometer mb |
| 20260504223342 | 63 | 208 | 0.0 | 0.0 | 0.00 | 0.00 | 0.00 | 54 | 785.7 |
| 20260504220328 | 63 | 115 | 0.0 | 0.0 | 0.00 | 0.00 | 0.00 | 55 | 785.7 |
| 20260504213347 | 63 | 179 | 0.0 | 0.0 | 0.00 | 0.00 | 0.00 | 56 | 785.8 |
| 20260504210341 | 63 | 111 | 0.0 | 0.0 | 0.00 | 0.00 | 0.00 | 57 | 785.8 |
| 20260504203351 | 63 | 175 | 0.0 | 0.0 | 0.00 | 0.00 | 0.00 | 58 | 785.8 |
| 20260504200321 | 60 | 102 | 0.0 | 0.0 | 0.00 | 0.00 | 0.00 | 63 | 785.9 |
| 20260504193341 | 59 | 210 | 0.0 | 0.0 | 0.00 | 0.00 | 0.00 | 65 | 786.0 |
| 20260504190351 | 58 | 114 | 0.0 | 0.0 | 0.00 | 0.00 | 0.00 | 68 | 786.0 |
| 20260504183328 | 56 | 109 | 0.0 | 0.0 | 0.00 | 0.00 | 0.00 | 73 | 786.1 |
| 20260504180322 | 56 | 204 | 0.0 | 0.0 | 0.00 | 0.00 | 0.00 | 73 | 786.1 |
| 20260504173336 | 56 | 169 | 0.0 | 0.0 | 0.00 | 0.00 | 0.00 | 73 | 786.1 |
| 20260504170332 | 54 | 270 | 0.0 | 0.0 | 0.00 | 0.00 | 0.00 | 78 | 786.2 |
| 20260504160355 | 52 | 199 | 0.0 | 0.0 | 0.00 | 0.00 | 0.00 | 81 | 786.2 |
| 20260504150328 | 50 | 208 | 0.0 | 0.0 | 0.00 | 0.00 | 0.00 | 93 | 786.1 |
| 20260504140359 | 45 | 294 | 0.0 | 0.0 | 0.00 | 0.00 | 0.00 | 94 | 786.2 |
| 20260504130327 | 45 | 317 | 0.0 | 0.0 | 0.00 | 0.00 | 0.00 | 93 | 786.1 |
| 20260504110325 | 45 | 134 | 0.0 | 0.0 | 0.00 | 0.00 | 0.00 | 91 | 786.0 |
| 20260504100324 | 43 | 134 | 0.0 | 0.0 | 0.00 | 0.00 | 0.00 | 87 | 786.0 |
| 20260504080338 | 44 | 204 | 0.0 | 0.0 | 0.00 | 0.00 | 0.00 | 73 | 786.2 |
| 20260504070328 | 46 | 217 | 0.0 | 0.0 | 0.00 | 0.00 | 0.00 | 70 | 786.3 |
| 20260504050333 | 44 | 173 | 0.0 | 0.0 | 0.00 | 0.00 | 0.00 | 62 | 786.4 |
| 20260504043326 | 44 | 173 | 0.0 | 0.0 | 0.00 | 0.00 | 0.00 | 62 | 786.5 |
| 20260504040402 | 44 | 173 | 0.0 | 0.0 | 0.00 | 0.00 | 0.00 | 62 | 786.5 |
| 20260504033324 | 44 | 142 | 0.0 | 0.0 | 0.00 | 0.00 | 0.00 | 62 | 786.5 |
| 20260504030339 | 44 | 142 | 0.0 | 0.0 | 0.00 | 0.00 | 0.00 | 59 | 786.5 |
| 20260504023335 | 46 | 142 | 0.0 | 0.0 | 0.00 | 0.00 | 0.00 | 54 | 786.6 |
| 20260504020347 | 48 | 142 | 0.0 | 0.0 | 0.00 | 0.00 | 0.00 | 49 | 786.6 |
| 20260504013324 | 49 | 162 | 0.0 | 0.0 | 0.00 | 0.00 | 0.00 | 46 | 786.6 |
| 20260504010333 | 51 | 236 | 0.0 | 0.0 | 0.00 | 0.00 | 0.00 | 45 | 786.6 |
| 20260504003332 | 52 | 219 | 0.0 | 0.0 | 0.00 | 0.00 | 0.00 | 41 | 786.6 |
| 20260504000337 | 52 | 161 | 0.0 | 0.0 | 0.00 | 0.00 | 0.00 | 39 | 786.5 |
| 20260503233324 | 53 | 161 | 0.0 | 0.0 | 0.00 | 0.00 | 0.00 | 36 | 786.5 |
| 20260503230355 | 54 | 218 | 0.0 | 0.0 | 0.00 | 0.00 | 0.00 | 34 | 786.5 |